Location: Aiyede
(8.4833°N, 4.4500°E)
Time: 09:34:59
(UTC+00:00)

Cosmos 1025 Rocket - Pass Details

Date: 24 September 2020
Orbit: 595 x 617 km, 82.5° (Epoch: 20 October)

Event Time Altitude Azimuth Distance (km) Brightness Sun altitude
Rises 18:38:31 0° 8° (N) 2,875 6.4 -16.1°
Reaches altitude 10° 18:40:50 10° 16° (NNE) 1,972 5.5 -16.7°
Maximum altitude 18:44:56 40° 85° (E) 917 3.4 -17.7°
Enters shadow 18:46:20 30° 127° (SE) 1,096 3.9 -18.0°
